Regional Weather Roundup
Issued by NWS Albany, NY

Home | Current Version | Previous Version | Text Only | Print | Product List | Glossary On
Versions: 1 2 3 4 5 6 7 8 9 10 11 12 13 14 15 16 17 18 19 20 21 22 23 24 25 26 27 28 29 30 31 32 33 34 35 36 37 38 39 40 41 42 43 44 45 46 47 48 49
000
ASUS41 KALY 210310
RWRALY

NEW YORK STATE HOURLY WEATHER ROUNDUP
NATIONAL WEATHER SERVICE ALBANY NY
1100 PM EDT MON OCT 20 2014

NOTE: "FAIR" INDICATES FEW OR NO CLOUDS BELOW 12,000 FEET WITH NO
SIGNIFICANT WEATHER AND/OR NO OBSTRUCTIONS TO VISIBILITY.

NYZ032-033-038>043-046>054-057>066-NYZ062>081-210400-
EAST


CITY           SKY/WX    TMP DP  RH WIND       PRES   REMARKS
ALBANY         CLOUDY    52  37  56 S8        29.95R
GLENS FALLS    CLOUDY    45  39  79 CALM      29.94R
POUGHKEEPSIE   CLOUDY    49  41  74 CALM      29.97R
NEWBURGH       MOCLDY    52  41  66 CALM      29.97S
MONTGOMERY     CLOUDY    44  40  85 N5        29.95F
WHITE PLAINS   MOCLDY    49  42  77 CALM      29.97S
ISLIP          MOCLDY    52  45  77 CALM      29.98S
NEW YORK CITY  MOCLDY    57  45  64 S7        29.97F
CENTRAL PARK   MOCLDY    58  44  60 CALM      30.00S
$$

NYZ005>009-017-018-044>046-055-056-210400-
CENTRAL


CITY           SKY/WX    TMP DP  RH WIND       PRES   REMARKS
FULTON         LGT RAIN  49  43  80 SE3       29.87S
SYRACUSE       LGT RAIN  54  43  66 MISG      29.88R
ROME           LGT RAIN  50  40  68 E7        29.90S
ELMIRA         CLOUDY    48  46  93 N3        29.88S
BINGHAMTON     CLOUDY    49  36  61 S6        29.89F
MONTICELLO     CLOUDY    46  37  71 E3        29.95F
$$

NYZ026>034-041>043-210400-
NORTH


CITY           SKY/WX    TMP DP  RH WIND       PRES   REMARKS
WATERTOWN      CLOUDY    53  38  56 CALM      29.86S
FORT DRUM      NOT AVBL
MASSENA        CLOUDY    44  43  96 E6        29.92S
SARANAC LAKE     N/A     40  37  89 CALM      29.88F
PLATTSBURGH    CLOUDY    42  40  92 CALM      29.92F
$$

NYZ001>004-010>016-019>021-210400-
WEST


CITY           SKY/WX    TMP DP  RH WIND       PRES   REMARKS
NIAGARA FALLS  LGT RAIN  51  49  92 S10       29.80F FOG
BUFFALO        LGT RAIN  51  46  83 SW14      29.82F
DUNKIRK        LGT RAIN  51  47  86 SW12G26   29.82S
JAMESTOWN      CLOUDY    46  45  93 S8        29.84F
WELLSVILLE     LGT RAIN  47  43  86 S7        29.88R
ROCHESTER      LGT RAIN  50  47  89 S5        29.85S
PENN YAN       LGT RAIN  49  44  83 SW6       29.87S
$$

             KEY
       WCI = WIND CHILL INDEX
       VSB = VISIBILITY
       HX  = HEAT INDEX
$$


USA.gov is the U.S. government's official web portal to all federal, state and local government web resources and services.